This is the latest recevied weather packets stored in our database for station/object G4WLC-1. If no packets are shown the sender has not sent any weather packets the latest 10 day(s).
| Time | Temp. | Humidity | Pressure | Rain* | Wind** | Luminosity | Snow |
|---|---|---|---|---|---|---|---|
| 1788605219 | 17.22° C | 71% | 1025.2 hPa | 0 mm | - | - | - |
| 1788604919 | 17.22° C | 69% | 1025.2 hPa | 0 mm | - | - | - |
| 1788604619 | 17.22° C | 71% | 1025.2 hPa | 0 mm | - | - | - |
| 1788604319 | 16.67° C | 72% | 1025.1 hPa | 0 mm | - | - | - |
| 1788604019 | 16.67° C | 71% | 1025.1 hPa | 0 mm | - | - | - |
| 1788603719 | 16.67° C | 70% | 1025.2 hPa | 0 mm | - | - | - |
| 1788603419 | 17.22° C | 69% | 1025.1 hPa | 0 mm | - | - | - |
| 1788603119 | 17.22° C | 72% | 1025 hPa | 0 mm | - | - | - |
| 1788602819 | 17.22° C | 71% | 1025 hPa | 0 mm | - | - | - |
| 1788602519 | 17.22° C | 69% | 1024.9 hPa | 0 mm | - | - | - |
| 1788602219 | 17.22° C | 72% | 1024.8 hPa | 0 mm | - | - | - |
| 1788601919 | 17.22° C | 72% | 1024.6 hPa | 0 mm | - | - | - |
| 1788601619 | 16.67° C | 70% | 1024.7 hPa | 0 mm | - | - | - |
| 1788601319 | 16.67° C | 71% | 1024.8 hPa | 0 mm | - | - | - |
| 1788601019 | 16.67° C | 74% | 1024.8 hPa | 0 mm | - | - | - |
| 1788600719 | 16.11° C | 74% | 1024.7 hPa | 0 mm | - | - | - |
| 1788600419 | 16.11° C | 75% | 1024.7 hPa | 0 mm | - | - | - |
| 1788600119 | 16.11° C | 75% | 1024.7 hPa | 0 mm | - | - | - |
| 1788599819 | 16.11° C | 77% | 1024.6 hPa | 0 mm | - | - | - |
| 1788599519 | 15.56° C | 76% | 1024.6 hPa | 0 mm | - | - | - |
| 1788599219 | 15.56° C | 77% | 1024.7 hPa | 0 mm | - | - | - |
| 1788598919 | 15.56° C | 78% | 1024.8 hPa | 0 mm | - | - | - |
| 1788598619 | 15° C | 79% | 1024.8 hPa | 0 mm | - | - | - |
| 1788598319 | 15° C | 80% | 1024.8 hPa | 0 mm | - | - | - |
| 1788598019 | 15° C | 80% | 1024.6 hPa | 0 mm | - | - | - |
* Rain latest hour (hover to see other rain measurements)
** Current wind speed in m/s (hover to see current wind gust speed)